This is the latest recevied weather packets stored in our database for station/object KK7PZE-13. If no packets are shown the sender has not sent any weather packets the latest 10 day(s).
| Time | Temp. | Humidity | Pressure | Rain* | Wind** | Luminosity | Snow |
|---|---|---|---|---|---|---|---|
| 1777481160 | 24.44° C | 14% | 1015.3 hPa | 0 mm | - | - | - |
| 1777479958 | 25° C | 14% | 1015.3 hPa | 0 mm | - | - | - |
| 1777478760 | 23.89° C | 15% | 1015.4 hPa | 0 mm | - | - | - |
| 1777478159 | 23.33° C | 16% | 1015.3 hPa | 0 mm | - | - | - |
| 1777476359 | 22.78° C | 17% | 1015.3 hPa | 0 mm | - | - | - |
| 1777475761 | 22.22° C | 17% | 1015.3 hPa | 0 mm | - | - | - |
| 1777473361 | 20.56° C | 19% | 1015 hPa | 0 mm | - | - | - |
| 1777472759 | 20.56° C | 18% | 1014.9 hPa | 0 mm | - | - | - |
| 1777472160 | 19.44° C | 21% | 1014.9 hPa | 0 mm | - | - | - |
| 1777471559 | 17.78° C | 24% | 1015 hPa | 0 mm | - | - | - |
| 1777470962 | 16.11° C | 26% | 1015.1 hPa | 0 mm | - | - | - |
| 1777470359 | 15° C | 26% | 1015 hPa | 0 mm | - | - | - |
| 1777469759 | 13.89° C | 27% | 1014.9 hPa | 0 mm | - | - | - |
| 1777469161 | 13.33° C | 27% | 1014.6 hPa | 0 mm | - | - | - |
| 1777468560 | 12.22° C | 28% | 1014.6 hPa | 0 mm | - | - | - |
| 1777467959 | 12.78° C | 28% | 1014.7 hPa | 0 mm | - | - | - |
| 1777467359 | 12.78° C | 27% | 1014.2 hPa | 0 mm | - | - | - |
| 1777466794 | 13.33° C | 26% | 1014.3 hPa | 0 mm | - | - | - |
| 1777466760 | 13.33° C | 26% | 1014.3 hPa | 0 mm | - | - | - |
| 1777466160 | 12.78° C | 26% | 1014.2 hPa | 0 mm | - | - | - |
| 1777465559 | 13.33° C | 27% | 1014.2 hPa | 0 mm | - | - | - |
| 1777464959 | 13.33° C | 26% | 1014.3 hPa | 0 mm | - | - | - |
| 1777464359 | 13.33° C | 25% | 1014.3 hPa | 0 mm | - | - | - |
| 1777463759 | 13.33° C | 26% | 1014 hPa | 0 mm | - | - | - |
| 1777463159 | 13.33° C | 25% | 1014.1 hPa | 0 mm | - | - | - |
* Rain latest hour (hover to see other rain measurements)
** Current wind speed in m/s (hover to see current wind gust speed)